| time (UTC) | temp F | wind direction | speed MPH | gust MPH | rain 1hr in | rain 24hr in | rain mn in | humidity % | barometer mb |
| 20260510221530 | 62 | 327 | 6.0 | 15.0 | 0.00 | 0.11 | 0.00 | 41 | 1015.3 |
| 20260510221256 | 62 | 334 | 7.0 | 15.0 | 0.00 | 0.11 | 0.00 | 38 | 1015.3 |
| 20260510215627 | 62 | 281 | 8.0 | 15.0 | 0.00 | 0.11 | 0.00 | 41 | 1015.1 |
| 20260510215531 | 62 | 285 | 5.0 | 19.0 | 0.00 | 0.11 | 0.00 | 43 | 1015.1 |
| 20260510214530 | 62 | 296 | 6.0 | 19.0 | 0.00 | 0.11 | 0.00 | 43 | 1015.0 |
| 20260510214029 | 63 | 306 | 14.0 | 19.0 | 0.00 | 0.11 | 0.00 | 39 | 1014.9 |
| 20260510213529 | 63 | 298 | 5.0 | 11.0 | 0.00 | 0.11 | 0.00 | 43 | 1014.8 |
| 20260510213029 | 63 | 317 | 5.0 | 15.0 | 0.00 | 0.11 | 0.00 | 42 | 1014.8 |
| 20260510212529 | 63 | 299 | 6.0 | 15.0 | 0.00 | 0.11 | 0.00 | 40 | 1014.8 |
| 20260510212029 | 63 | 269 | 5.0 | 17.0 | 0.00 | 0.11 | 0.00 | 45 | 1014.8 |
| 20260510211530 | 62 | 348 | 6.0 | 17.0 | 0.00 | 0.11 | 0.00 | 45 | 1014.6 |
| 20260510211323 | 62 | 316 | 7.0 | 16.0 | 0.00 | 0.11 | 0.00 | 43 | 1014.6 |
| 20260510210529 | 62 | 319 | 9.0 | 14.0 | 0.00 | 0.11 | 0.00 | 42 | 1014.6 |
| 20260510210321 | 63 | 283 | 6.0 | 15.0 | 0.00 | 0.11 | 0.00 | 44 | 1014.6 |
| 20260510210025 | 63 | 336 | 6.0 | 19.0 | 0.00 | 0.11 | 0.00 | 42 | 1014.6 |
| 20260510205032 | 63 | 292 | 7.0 | 19.0 | 0.00 | 0.11 | 0.00 | 44 | 1014.5 |
| 20260510205027 | 63 | 264 | 8.0 | 17.0 | 0.00 | 0.11 | 0.00 | 44 | 1014.2 |
| 20260510204305 | 63 | 307 | 4.0 | 14.0 | 0.00 | 0.11 | 0.00 | 44 | 1014.2 |
| 20260510203529 | 63 | 316 | 5.0 | 14.0 | 0.00 | 0.11 | 0.00 | 43 | 1014.5 |
| 20260510203030 | 63 | 279 | 3.0 | 17.0 | 0.00 | 0.11 | 0.00 | 41 | 1014.4 |
| 20260510202529 | 64 | 298 | 9.0 | 17.0 | 0.00 | 0.11 | 0.00 | 41 | 1014.2 |
| 20260510202029 | 64 | 286 | 9.0 | 14.0 | 0.00 | 0.12 | 0.00 | 45 | 1014.1 |
| 20260510202017 | 64 | 338 | 6.0 | 16.0 | 0.00 | 0.12 | 0.00 | 45 | 1014.0 |
| 20260510201252 | 64 | 295 | 7.0 | 16.0 | 0.00 | 0.12 | 0.00 | 43 | 1013.9 |
| 20260510200029 | 63 | 276 | 3.0 | 17.0 | 0.00 | 0.12 | 0.00 | 47 | 1013.9 |
| 20260510195747 | 63 | 278 | 8.0 | 17.0 | 0.00 | 0.12 | 0.00 | 44 | 1013.9 |
| 20260510194529 | 64 | 300 | 6.0 | 17.0 | 0.00 | 0.12 | 0.00 | 44 | 1013.9 |
| 20260510194031 | 64 | 292 | 8.0 | 14.0 | 0.00 | 0.12 | 0.00 | 46 | 1013.9 |
| 20260510193529 | 64 | 310 | 6.0 | 12.0 | 0.00 | 0.12 | 0.00 | 43 | 1014.0 |
| 20260510193515 | 63 | 0 | 2.0 | 16.0 | 0.00 | 0.12 | 0.00 | 52 | 1014.0 |
| 20260510192307 | 63 | 292 | 9.0 | 15.0 | 0.00 | 0.12 | 0.00 | 45 | 1014.0 |
| 20260510192007 | 63 | 1 | 6.0 | 13.0 | 0.00 | 0.12 | 0.00 | 47 | 1014.1 |
| 20260510190528 | 62 | 317 | 5.0 | 18.0 | 0.00 | 0.12 | 0.00 | 52 | 1014.0 |
| 20260510190032 | 61 | 282 | 11.0 | 16.0 | 0.00 | 0.12 | 0.00 | 44 | 1014.0 |
| 20260510185529 | 62 | 241 | 6.0 | 16.0 | 0.00 | 0.12 | 0.00 | 44 | 1014.0 |
| 20260510185029 | 62 | 279 | 9.0 | 16.0 | 0.00 | 0.12 | 0.00 | 45 | 1014.0 |
| 20260510184529 | 62 | 293 | 9.0 | 15.0 | 0.00 | 0.12 | 0.00 | 45 | 1014.0 |
| 20260510184028 | 62 | 266 | 8.0 | 15.0 | 0.00 | 0.12 | 0.00 | 45 | 1014.0 |
| 20260510183807 | 62 | 292 | 10.0 | 16.0 | 0.00 | 0.12 | 0.00 | 47 | 1014.0 |
| 20260510183029 | 62 | 300 | 7.0 | 16.0 | 0.00 | 0.12 | 0.00 | 46 | 1014.0 |
| 20260510182528 | 62 | 279 | 7.0 | 15.0 | 0.00 | 0.12 | 0.00 | 50 | 1013.9 |
| 20260510182029 | 61 | 331 | 3.0 | 10.0 | 0.00 | 0.12 | 0.00 | 45 | 1014.0 |
| 20260510181529 | 60 | 307 | 4.0 | 15.0 | 0.00 | 0.12 | 0.00 | 48 | 1014.1 |
| 20260510181030 | 60 | 317 | 4.0 | 15.0 | 0.00 | 0.12 | 0.00 | 47 | 1014.1 |
| 20260510180529 | 61 | 300 | 7.0 | 15.0 | 0.00 | 0.12 | 0.00 | 49 | 1014.2 |
| 20260510180028 | 61 | 258 | 10.0 | 15.0 | 0.00 | 0.12 | 0.00 | 51 | 1014.2 |
| 20260510175530 | 61 | 298 | 5.0 | 17.0 | 0.00 | 0.12 | 0.00 | 50 | 1014.1 |
| 20260510175029 | 60 | 269 | 7.0 | 17.0 | 0.00 | 0.12 | 0.00 | 51 | 1014.1 |
| 20260510174528 | 61 | 306 | 9.0 | 16.0 | 0.00 | 0.12 | 0.00 | 51 | 1014.0 |
| 20260510174029 | 61 | 305 | 4.0 | 7.0 | 0.00 | 0.12 | 0.00 | 49 | 1014.1 |
| 20260510173528 | 62 | 274 | 4.0 | 16.0 | 0.00 | 0.12 | 0.00 | 48 | 1014.1 |
| 20260510173028 | 62 | 245 | 7.0 | 16.0 | 0.00 | 0.12 | 0.00 | 47 | 1014.0 |
| 20260510172529 | 62 | 233 | 6.0 | 11.0 | 0.00 | 0.12 | 0.00 | 51 | 1014.0 |
| 20260510172307 | 61 | 271 | 5.0 | 11.0 | 0.00 | 0.12 | 0.00 | 51 | 1014.0 |
| 20260510171756 | 60 | 330 | 4.0 | 12.0 | 0.00 | 0.12 | 0.00 | 58 | 1014.0 |
| 20260510171029 | 60 | 343 | 5.0 | 15.0 | 0.00 | 0.12 | 0.00 | 55 | 1014.1 |
| 20260510170953 | 60 | 316 | 6.0 | 15.0 | 0.00 | 0.12 | 0.00 | 52 | 1014.1 |
| 20260510170949 | 60 | 276 | 4.0 | 15.0 | 0.00 | 0.12 | 0.00 | 52 | 1014.1 |
| 20260510170325 | 60 | 293 | 7.0 | 15.0 | 0.00 | 0.12 | 0.00 | 49 | 1014.1 |
| 20260510165029 | 60 | 290 | 3.0 | 7.0 | 0.00 | 0.12 | 0.00 | 52 | 1014.1 |
| 20260510164528 | 60 | 345 | 4.0 | 9.0 | 0.00 | 0.12 | 0.00 | 52 | 1014.1 |
| 20260510164029 | 60 | 227 | 2.0 | 12.0 | 0.00 | 0.12 | 0.00 | 55 | 1014.1 |
| 20260510163528 | 60 | 298 | 5.0 | 12.0 | 0.00 | 0.12 | 0.00 | 51 | 1014.2 |
| 20260510163028 | 59 | 275 | 5.0 | 10.0 | 0.00 | 0.12 | 0.00 | 54 | 1014.1 |
| 20260510162528 | 58 | 243 | 4.0 | 10.0 | 0.00 | 0.12 | 0.00 | 52 | 1014.1 |
| 20260510162028 | 58 | 307 | 5.0 | 12.0 | 0.00 | 0.12 | 0.00 | 52 | 1014.2 |
| 20260510161529 | 58 | 288 | 8.0 | 12.0 | 0.00 | 0.12 | 0.00 | 58 | 1014.1 |
| 20260510161251 | 58 | 289 | 3.0 | 16.0 | 0.00 | 0.12 | 0.00 | 60 | 1014.1 |
| 20260510160029 | 57 | 316 | 3.0 | 15.0 | 0.00 | 0.12 | 0.00 | 57 | 1014.1 |
| 20260510155528 | 57 | 290 | 6.0 | 12.0 | 0.00 | 0.12 | 0.00 | 58 | 1014.2 |
| 20260510155031 | 56 | 286 | 4.0 | 11.0 | 0.00 | 0.12 | 0.00 | 60 | 1014.2 |
| 20260510154529 | 56 | 278 | 3.0 | 7.0 | 0.00 | 0.12 | 0.00 | 64 | 1014.2 |
| 20260510154029 | 56 | 42 | 3.0 | 7.0 | 0.00 | 0.12 | 0.00 | 64 | 1014.2 |
| 20260510153529 | 56 | 275 | 4.0 | 10.0 | 0.00 | 0.12 | 0.00 | 65 | 1014.2 |
| 20260510153029 | 55 | 285 | 6.0 | 11.0 | 0.00 | 0.12 | 0.00 | 63 | 1014.2 |
| 20260510152528 | 55 | 241 | 3.0 | 11.0 | 0.00 | 0.12 | 0.00 | 67 | 1014.2 |
| 20260510152028 | 55 | 269 | 2.0 | 6.0 | 0.00 | 0.12 | 0.00 | 70 | 1014.1 |
| 20260510151528 | 54 | 251 | 2.0 | 7.0 | 0.00 | 0.12 | 0.00 | 71 | 1014.2 |
| 20260510151029 | 53 | 289 | 3.0 | 7.0 | 0.00 | 0.12 | 0.00 | 68 | 1014.2 |
| 20260510150807 | 53 | 265 | 4.0 | 5.0 | 0.00 | 0.12 | 0.00 | 71 | 1014.2 |
| 20260510150029 | 52 | 276 | 2.0 | 5.0 | 0.00 | 0.12 | 0.00 | 70 | 1014.2 |
| 20260510145528 | 52 | 295 | 2.0 | 6.0 | 0.00 | 0.12 | 0.00 | 68 | 1014.1 |
| 20260510145028 | 52 | 351 | 3.0 | 7.0 | 0.00 | 0.12 | 0.00 | 68 | 1014.0 |
| 20260510144528 | 52 | 262 | 3.0 | 7.0 | 0.00 | 0.12 | 0.00 | 69 | 1013.9 |
| 20260510144029 | 51 | 293 | 3.0 | 7.0 | 0.00 | 0.12 | 0.00 | 71 | 1013.7 |
| 20260510143529 | 51 | 329 | 3.0 | 7.0 | 0.00 | 0.12 | 0.00 | 72 | 1013.7 |
| 20260510143029 | 51 | 282 | 3.0 | 6.0 | 0.00 | 0.12 | 0.00 | 73 | 1013.6 |
| 20260510142530 | 51 | 286 | 3.0 | 9.0 | 0.00 | 0.12 | 0.00 | 73 | 1013.6 |
| 20260510142028 | 50 | 282 | 4.0 | 9.0 | 0.00 | 0.12 | 0.00 | 74 | 1013.5 |
| 20260510141528 | 50 | 276 | 3.0 | 5.0 | 0.00 | 0.12 | 0.00 | 78 | 1013.5 |
| 20260510141028 | 50 | 306 | 2.0 | 7.0 | 0.00 | 0.12 | 0.00 | 77 | 1013.5 |
| 20260510140528 | 50 | 268 | 4.0 | 7.0 | 0.00 | 0.12 | 0.00 | 77 | 1013.6 |
| 20260510140028 | 49 | 255 | 1.0 | 5.0 | 0.00 | 0.12 | 0.00 | 79 | 1013.5 |
| 20260510135529 | 49 | 296 | 1.0 | 4.0 | 0.00 | 0.12 | 0.00 | 78 | 1013.4 |
| 20260510135028 | 49 | 279 | 1.0 | 6.0 | 0.00 | 0.12 | 0.00 | 78 | 1013.4 |
| 20260510134529 | 50 | 309 | 4.0 | 6.0 | 0.00 | 0.12 | 0.00 | 77 | 1013.3 |
| 20260510134029 | 50 | 319 | 3.0 | 6.0 | 0.00 | 0.12 | 0.00 | 79 | 1013.3 |
| 20260510133528 | 50 | 282 | 3.0 | 6.0 | 0.00 | 0.12 | 0.00 | 80 | 1013.2 |
| 20260510133237 | 50 | 326 | 1.0 | 10.0 | 0.00 | 0.12 | 0.00 | 80 | 1013.2 |
| 20260510130528 | 51 | 0 | 1.0 | 7.0 | 0.00 | 0.12 | 0.00 | 82 | 1012.7 |
| 20260510130028 | 50 | 310 | 2.0 | 7.0 | 0.00 | 0.13 | 0.00 | 84 | 1012.6 |
| 20260510125529 | 50 | 331 | 2.0 | 9.0 | 0.00 | 0.13 | 0.00 | 84 | 1012.6 |
| 20260510125029 | 50 | 330 | 2.0 | 12.0 | 0.00 | 0.13 | 0.00 | 85 | 1012.5 |
| 20260510124757 | 49 | 23 | 3.0 | 12.0 | 0.00 | 0.13 | 0.00 | 83 | 1012.4 |
| 20260510123803 | 50 | 23 | 2.0 | 10.0 | 0.00 | 0.13 | 0.00 | 84 | 1012.6 |
| 20260510123028 | 50 | 343 | 3.0 | 13.0 | 0.00 | 0.14 | 0.00 | 84 | 1012.5 |
| 20260510122528 | 51 | 340 | 5.0 | 13.0 | 0.00 | 0.14 | 0.00 | 86 | 1012.5 |
| 20260510122516 | 51 | 241 | 4.0 | 12.0 | 0.00 | 0.14 | 0.00 | 91 | 1012.5 |
| 20260510121031 | 52 | 300 | 2.0 | 9.0 | 0.00 | 0.15 | 0.00 | 94 | 1012.2 |
| 20260510120528 | 52 | 279 | 6.0 | 9.0 | 0.00 | 0.15 | 0.00 | 94 | 1012.1 |
| 20260510120028 | 52 | 285 | 5.0 | 7.0 | 0.00 | 0.16 | 0.00 | 94 | 1011.9 |
| 20260510115528 | 51 | 292 | 4.0 | 6.0 | 0.00 | 0.16 | 0.00 | 94 | 1011.8 |
| 20260510115028 | 51 | 276 | 5.0 | 6.0 | 0.00 | 0.16 | 0.00 | 94 | 1011.7 |
| 20260510114528 | 51 | 295 | 4.0 | 6.0 | 0.00 | 0.17 | 0.00 | 95 | 1011.8 |
| 20260510114028 | 51 | 282 | 4.0 | 6.0 | 0.00 | 0.17 | 0.00 | 95 | 1011.7 |
| 20260510113528 | 50 | 255 | 4.0 | 5.0 | 0.00 | 0.18 | 0.00 | 95 | 1011.6 |
| 20260510113028 | 50 | 259 | 4.0 | 6.0 | 0.00 | 0.18 | 0.00 | 95 | 1011.5 |
| 20260510112528 | 50 | 240 | 2.0 | 6.0 | 0.00 | 0.18 | 0.00 | 95 | 1011.4 |
| 20260510112028 | 50 | 248 | 4.0 | 7.0 | 0.00 | 0.19 | 0.00 | 95 | 1011.3 |
| 20260510111528 | 49 | 252 | 4.0 | 9.0 | 0.00 | 0.20 | 0.00 | 95 | 1011.3 |
| 20260510111029 | 49 | 247 | 4.0 | 9.0 | 0.00 | 0.21 | 0.00 | 94 | 1011.1 |
| 20260510110528 | 49 | 266 | 4.0 | 7.0 | 0.00 | 0.21 | 0.00 | 94 | 1011.0 |
| 20260510110028 | 49 | 258 | 4.0 | 6.0 | 0.00 | 0.22 | 0.00 | 94 | 1011.1 |
| 20260510105528 | 49 | 238 | 4.0 | 7.0 | 0.00 | 0.22 | 0.00 | 94 | 1010.9 |
| 20260510105028 | 49 | 264 | 4.0 | 7.0 | 0.00 | 0.23 | 0.00 | 94 | 1010.8 |
| 20260510104528 | 48 | 271 | 3.0 | 7.0 | 0.00 | 0.24 | 0.00 | 94 | 1010.6 |
| 20260510104028 | 48 | 241 | 3.0 | 7.0 | 0.00 | 0.25 | 0.00 | 94 | 1010.4 |
| 20260510103807 | 48 | 240 | 4.0 | 7.0 | 0.00 | 0.26 | 0.00 | 94 | 1010.4 |
| 20260510103028 | 48 | 234 | 3.0 | 6.0 | 0.00 | 0.27 | 0.00 | 93 | 1010.1 |
| 20260510102529 | 48 | 197 | 3.0 | 10.0 | 0.00 | 0.27 | 0.00 | 93 | 1010.1 |
| 20260510102028 | 48 | 274 | 4.0 | 10.0 | 0.00 | 0.28 | 0.00 | 93 | 1010.2 |
| 20260510101528 | 48 | 238 | 4.0 | 7.0 | 0.00 | 0.28 | 0.00 | 93 | 1010.1 |
| 20260510101029 | 48 | 228 | 4.0 | 11.0 | 0.00 | 0.29 | 0.00 | 93 | 1009.9 |
| 20260510100528 | 48 | 243 | 5.0 | 11.0 | 0.00 | 0.29 | 0.00 | 93 | 1010.0 |
| 20260510100028 | 49 | 275 | 5.0 | 9.0 | 0.00 | 0.29 | 0.00 | 93 | 1009.8 |
| 20260510095528 | 49 | 271 | 5.0 | 7.0 | 0.00 | 0.30 | 0.00 | 93 | 1009.7 |
| 20260510095028 | 49 | 251 | 4.0 | 6.0 | 0.00 | 0.30 | 0.00 | 93 | 1009.6 |
| 20260510094528 | 49 | 268 | 4.0 | 6.0 | 0.00 | 0.30 | 0.00 | 93 | 1009.6 |
| 20260510094028 | 49 | 258 | 3.0 | 6.0 | 0.00 | 0.31 | 0.00 | 93 | 1009.4 |
| 20260510093759 | 49 | 255 | 4.0 | 6.0 | 0.00 | 0.32 | 0.00 | 92 | 1009.4 |
| 20260510093028 | 49 | 248 | 3.0 | 5.0 | 0.00 | 0.33 | 0.00 | 92 | 1009.5 |
| 20260510092528 | 49 | 254 | 3.0 | 9.0 | 0.00 | 0.33 | 0.00 | 92 | 1009.2 |
| 20260510092027 | 49 | 252 | 5.0 | 9.0 | 0.00 | 0.34 | 0.00 | 92 | 1009.3 |
| 20260510091527 | 49 | 255 | 4.0 | 10.0 | 0.00 | 0.34 | 0.00 | 92 | 1009.1 |
| 20260510091029 | 49 | 268 | 4.0 | 11.0 | 0.00 | 0.34 | 0.00 | 92 | 1009.1 |
| 20260510090528 | 49 | 271 | 6.0 | 11.0 | 0.00 | 0.34 | 0.00 | 92 | 1009.1 |
| 20260510090029 | 49 | 266 | 5.0 | 11.0 | 0.00 | 0.34 | 0.00 | 92 | 1009.2 |
| 20260510085805 | 49 | 266 | 6.0 | 11.0 | 0.00 | 0.35 | 0.00 | 92 | 1009.2 |
| 20260510085306 | 49 | 250 | 5.0 | 10.0 | 0.00 | 0.35 | 0.00 | 92 | 1009.1 |
| 20260510084528 | 49 | 292 | 6.0 | 9.0 | 0.00 | 0.35 | 0.00 | 92 | 1009.1 |
| 20260510084028 | 49 | 248 | 4.0 | 9.0 | 0.00 | 0.35 | 0.00 | 92 | 1009.0 |
| 20260510083529 | 49 | 257 | 6.0 | 9.0 | 0.00 | 0.35 | 0.00 | 92 | 1008.9 |
| 20260510083028 | 49 | 237 | 5.0 | 7.0 | 0.00 | 0.35 | 0.00 | 92 | 1008.9 |
| 20260510082528 | 49 | 251 | 4.0 | 7.0 | 0.00 | 0.35 | 0.00 | 92 | 1008.9 |
| 20260510082306 | 49 | 279 | 5.0 | 7.0 | 0.00 | 0.35 | 0.00 | 92 | 1009.0 |
| 20260510081806 | 49 | 238 | 4.0 | 7.0 | 0.00 | 0.35 | 0.00 | 92 | 1009.0 |
| 20260510081027 | 49 | 250 | 4.0 | 7.0 | 0.00 | 0.35 | 0.00 | 92 | 1009.0 |
| 20260510080528 | 49 | 259 | 3.0 | 10.0 | 0.00 | 0.35 | 0.00 | 92 | 1008.8 |
| 20260510080029 | 49 | 285 | 3.0 | 13.0 | 0.00 | 0.35 | 0.00 | 92 | 1008.8 |
| 20260510075529 | 49 | 207 | 6.0 | 13.0 | 0.00 | 0.35 | 0.00 | 92 | 1008.8 |
| 20260510075306 | 49 | 254 | 6.0 | 11.0 | 0.00 | 0.35 | 0.00 | 92 | 1008.8 |
| 20260510074527 | 49 | 235 | 4.0 | 7.0 | 0.00 | 0.35 | 0.00 | 92 | 1009.0 |
| 20260510074027 | 49 | 245 | 4.0 | 6.0 | 0.00 | 0.35 | 0.00 | 92 | 1009.0 |
| 20260510073529 | 49 | 251 | 3.0 | 7.0 | 0.00 | 0.35 | 0.00 | 92 | 1008.9 |
| 20260510073027 | 49 | 264 | 4.0 | 7.0 | 0.00 | 0.35 | 0.00 | 92 | 1009.0 |
| 20260510072530 | 49 | 250 | 4.0 | 7.0 | 0.00 | 0.35 | 0.00 | 92 | 1008.9 |
| 20260510072028 | 49 | 259 | 3.0 | 7.0 | 0.00 | 0.35 | 0.00 | 92 | 1009.0 |
| 20260510071528 | 49 | 196 | 3.0 | 6.0 | 0.00 | 0.35 | 0.00 | 92 | 1008.8 |
| 20260510071028 | 49 | 192 | 4.0 | 7.0 | 0.00 | 0.35 | 0.00 | 92 | 1008.8 |
| 20260510070527 | 49 | 245 | 3.0 | 7.0 | 0.00 | 0.35 | 0.00 | 92 | 1008.6 |
| 20260510070047 | 49 | 268 | 5.0 | 10.0 | 0.00 | 0.35 | 0.00 | 92 | 1008.5 |
| 20260510070039 | 49 | 209 | 3.0 | 10.0 | 0.00 | 0.35 | 0.00 | 92 | 1008.5 |
| 20260510065029 | 49 | 238 | 5.0 | 11.0 | 0.00 | 0.35 | 0.00 | 92 | 1008.6 |
| 20260510064527 | 48 | 206 | 6.0 | 11.0 | 0.00 | 0.35 | 0.00 | 92 | 1008.8 |
| 20260510064027 | 48 | 234 | 4.0 | 10.0 | 0.00 | 0.35 | 0.00 | 92 | 1008.7 |
| 20260510063527 | 48 | 250 | 6.0 | 11.0 | 0.00 | 0.35 | 0.00 | 92 | 1008.7 |
| 20260510063028 | 48 | 257 | 4.0 | 12.0 | 0.00 | 0.35 | 0.00 | 92 | 1008.8 |
| 20260510062530 | 48 | 231 | 5.0 | 12.0 | 0.00 | 0.35 | 0.00 | 91 | 1008.8 |
| 20260510062027 | 48 | 216 | 3.0 | 7.0 | 0.00 | 0.35 | 0.00 | 91 | 1008.8 |
| 20260510061805 | 48 | 231 | 2.0 | 5.0 | 0.00 | 0.35 | 0.00 | 91 | 1008.9 |
| 20260510061028 | 48 | 214 | 3.0 | 6.0 | 0.00 | 0.35 | 0.00 | 91 | 1008.8 |
| 20260510060528 | 49 | 188 | 2.0 | 6.0 | 0.00 | 0.35 | 0.00 | 91 | 1008.7 |
| 20260510060027 | 49 | 197 | 2.0 | 5.0 | 0.00 | 0.36 | 0.00 | 91 | 1008.7 |
| 20260510055527 | 49 | 209 | 3.0 | 7.0 | 0.00 | 0.36 | 0.00 | 91 | 1008.6 |
| 20260510055028 | 49 | 186 | 3.0 | 7.0 | 0.00 | 0.36 | 0.00 | 91 | 1008.7 |
| 20260510054529 | 49 | 185 | 5.0 | 7.0 | 0.00 | 0.36 | 0.00 | 90 | 1008.6 |
| 20260510054303 | 49 | 186 | 3.0 | 6.0 | 0.00 | 0.36 | 0.00 | 90 | 1008.7 |
| 20260510053528 | 49 | 199 | 3.0 | 6.0 | 0.00 | 0.37 | 0.00 | 90 | 1008.7 |
| 20260510053301 | 49 | 190 | 3.0 | 6.0 | 0.00 | 0.37 | 0.00 | 90 | 1008.7 |
| 20260510052527 | 49 | 231 | 3.0 | 6.0 | 0.00 | 0.37 | 0.00 | 90 | 1009.0 |
| 20260510052028 | 49 | 176 | 4.0 | 7.0 | 0.00 | 0.37 | 0.00 | 91 | 1009.0 |
| 20260510051528 | 49 | 157 | 4.0 | 10.0 | 0.00 | 0.38 | 0.00 | 91 | 1008.8 |
| 20260510051028 | 49 | 164 | 6.0 | 10.0 | 0.00 | 0.38 | 0.00 | 91 | 1008.9 |
| 20260510050528 | 49 | 188 | 6.0 | 11.0 | 0.00 | 0.39 | 0.00 | 91 | 1009.0 |
| 20260510050027 | 49 | 180 | 6.0 | 14.0 | 0.00 | 0.39 | 0.00 | 92 | 1009.1 |
| 20260510045528 | 49 | 195 | 7.0 | 14.0 | 0.00 | 0.40 | 0.00 | 92 | 1009.1 |
| 20260510045027 | 49 | 235 | 4.0 | 9.0 | 0.00 | 0.40 | 0.00 | 92 | 1009.2 |
| 20260510045019 | 49 | 169 | 4.0 | 10.0 | 0.00 | 0.41 | 0.00 | 92 | 1009.0 |
| 20260510044036 | 49 | 219 | 4.0 | 10.0 | 0.00 | 0.42 | 0.00 | 92 | 1009.1 |
| 20260510044027 | 49 | 237 | 4.0 | 10.0 | 0.00 | 0.41 | 0.00 | 92 | 1009.1 |
| 20260510043028 | 49 | 238 | 5.0 | 10.0 | 0.01 | 0.43 | 0.00 | 92 | 1009.3 |
| 20260510042527 | 49 | 248 | 5.0 | 10.0 | 0.02 | 0.43 | 0.00 | 92 | 1009.2 |
| 20260510042027 | 49 | 216 | 4.0 | 10.0 | 0.03 | 0.43 | 0.00 | 92 | 1009.3 |
| 20260510041801 | 49 | 255 | 3.0 | 11.0 | 0.04 | 0.44 | 0.00 | 92 | 1009.2 |
| 20260510041027 | 49 | 193 | 5.0 | 12.0 | 0.05 | 0.44 | 0.00 | 92 | 1009.1 |
| 20260510040805 | 49 | 202 | 6.0 | 12.0 | 0.05 | 0.44 | 0.00 | 92 | 1009.1 |
| 20260510040028 | 48 | 189 | 6.0 | 12.0 | 0.06 | 0.44 | 0.00 | 92 | 1009.2 |
| 20260510040022 | 48 | 312 | 6.0 | 13.0 | 0.06 | 0.38 | 0.44 | 92 | 1009.1 |
| 20260510035308 | 48 | 145 | 6.0 | 13.0 | 0.07 | 0.38 | 0.44 | 92 | 1008.9 |
| 20260510035306 | 48 | 221 | 5.0 | 12.0 | 0.08 | 0.38 | 0.44 | 92 | 1009.0 |
| 20260510034516 | 48 | 192 | 7.0 | 17.0 | 0.09 | 0.38 | 0.44 | 92 | 1008.9 |
| 20260510033758 | 48 | 169 | 9.0 | 17.0 | 0.09 | 0.38 | 0.44 | 92 | 1008.9 |
| 20260510033304 | 48 | 183 | 6.0 | 15.0 | 0.08 | 0.38 | 0.43 | 92 | 1009.1 |
| 20260510032734 | 48 | 196 | 8.0 | 15.0 | 0.08 | 0.38 | 0.42 | 92 | 1009.3 |
| 20260510031801 | 48 | 173 | 5.0 | 10.0 | 0.07 | 0.38 | 0.40 | 91 | 1009.4 |
| 20260510031306 | 48 | 165 | 4.0 | 12.0 | 0.06 | 0.38 | 0.39 | 91 | 1009.4 |
| 20260510030527 | 49 | 248 | 4.0 | 13.0 | 0.06 | 0.38 | 0.39 | 91 | 1009.4 |
| 20260510030027 | 49 | 258 | 9.0 | 14.0 | 0.05 | 0.38 | 0.38 | 90 | 1009.6 |
| 20260510025755 | 49 | 265 | 10.0 | 14.0 | 0.05 | 0.33 | 0.38 | 90 | 1009.4 |
| 20260510024038 | 50 | 268 | 10.0 | 21.0 | 0.02 | 0.33 | 0.35 | 86 | 1009.7 |
| 20260510024027 | 50 | 275 | 12.0 | 20.0 | 0.02 | 0.33 | 0.35 | 88 | 1009.8 |
| 20260510022306 | 52 | 276 | 19.0 | 33.0 | 0.00 | 0.33 | 0.33 | 81 | 1009.4 |
| 20260510021528 | 53 | 292 | 14.0 | 28.0 | 0.00 | 0.33 | 0.33 | 83 | 1009.0 |
| 20260510021026 | 54 | 282 | 8.0 | 12.0 | 0.00 | 0.33 | 0.33 | 88 | 1008.8 |
| 20260510020527 | 54 | 286 | 4.0 | 10.0 | 0.00 | 0.33 | 0.33 | 88 | 1008.4 |
| 20260510020027 | 54 | 255 | 3.0 | 11.0 | 0.00 | 0.33 | 0.33 | 89 | 1008.2 |
| 20260510015527 | 54 | 268 | 4.0 | 12.0 | 0.00 | 0.33 | 0.33 | 89 | 1008.1 |
| 20260510015028 | 54 | 265 | 6.0 | 13.0 | 0.00 | 0.33 | 0.33 | 89 | 1008.1 |
| 20260510014527 | 54 | 265 | 5.0 | 13.0 | 0.00 | 0.33 | 0.33 | 89 | 1007.8 |
| 20260510014027 | 54 | 204 | 6.0 | 10.0 | 0.00 | 0.33 | 0.33 | 89 | 1007.7 |
| 20260510013527 | 54 | 188 | 4.0 | 11.0 | 0.00 | 0.33 | 0.33 | 89 | 1007.5 |
| 20260510013027 | 54 | 186 | 6.0 | 11.0 | 0.00 | 0.33 | 0.33 | 89 | 1007.4 |
| 20260510012804 | 54 | 168 | 8.0 | 12.0 | 0.00 | 0.33 | 0.33 | 89 | 1007.2 |
| 20260510012027 | 54 | 152 | 7.0 | 12.0 | 0.00 | 0.33 | 0.33 | 89 | 1007.1 |
| 20260510011804 | 54 | 161 | 6.0 | 12.0 | 0.00 | 0.33 | 0.33 | 89 | 1007.1 |
| 20260510011027 | 54 | 155 | 8.0 | 13.0 | 0.00 | 0.33 | 0.33 | 89 | 1006.9 |
| 20260510010528 | 54 | 151 | 7.0 | 13.0 | 0.00 | 0.33 | 0.33 | 88 | 1007.0 |
| 20260510010029 | 54 | 166 | 6.0 | 11.0 | 0.00 | 0.33 | 0.33 | 88 | 1007.0 |
| 20260510005807 | 54 | 162 | 7.0 | 13.0 | 0.00 | 0.33 | 0.33 | 87 | 1006.9 |
| 20260510005027 | 54 | 165 | 8.0 | 13.0 | 0.00 | 0.33 | 0.33 | 87 | 1006.9 |
| 20260510004528 | 54 | 159 | 8.0 | 13.0 | 0.00 | 0.33 | 0.33 | 86 | 1006.9 |
| 20260510004028 | 54 | 149 | 8.0 | 11.0 | 0.00 | 0.33 | 0.33 | 86 | 1006.7 |
| 20260510003527 | 55 | 173 | 6.0 | 14.0 | 0.00 | 0.33 | 0.33 | 85 | 1006.8 |
| 20260510003027 | 55 | 183 | 6.0 | 14.0 | 0.00 | 0.33 | 0.33 | 85 | 1006.9 |
| 20260510002527 | 55 | 192 | 7.0 | 11.0 | 0.00 | 0.33 | 0.33 | 85 | 1006.9 |
| 20260510002027 | 55 | 185 | 6.0 | 12.0 | 0.00 | 0.33 | 0.33 | 85 | 1006.8 |
| 20260510001527 | 55 | 203 | 6.0 | 12.0 | 0.00 | 0.33 | 0.33 | 85 | 1006.7 |
| 20260510001305 | 55 | 185 | 7.0 | 13.0 | 0.00 | 0.33 | 0.33 | 85 | 1006.7 |
| 20260510000527 | 55 | 189 | 7.0 | 13.0 | 0.00 | 0.33 | 0.33 | 84 | 1006.6 |
| 20260510000027 | 55 | 176 | 7.0 | 11.0 | 0.00 | 0.33 | 0.33 | 84 | 1006.6 |
| 20260509235529 | 55 | 171 | 7.0 | 10.0 | 0.00 | 0.33 | 0.33 | 83 | 1006.7 |
| 20260509235026 | 56 | 197 | 6.0 | 12.0 | 0.00 | 0.33 | 0.33 | 81 | 1006.5 |
| 20260509234527 | 56 | 199 | 6.0 | 12.0 | 0.00 | 0.33 | 0.33 | 81 | 1006.5 |
| 20260509234027 | 56 | 176 | 5.0 | 11.0 | 0.00 | 0.33 | 0.33 | 80 | 1006.5 |
| 20260509233527 | 56 | 152 | 5.0 | 12.0 | 0.00 | 0.33 | 0.33 | 79 | 1006.6 |
| 20260509233027 | 56 | 202 | 7.0 | 12.0 | 0.00 | 0.33 | 0.33 | 79 | 1006.6 |
| 20260509232527 | 57 | 204 | 5.0 | 12.0 | 0.00 | 0.33 | 0.33 | 79 | 1006.6 |
| 20260509232027 | 57 | 190 | 7.0 | 17.0 | 0.00 | 0.33 | 0.33 | 79 | 1006.6 |
| 20260509231528 | 57 | 200 | 9.0 | 17.0 | 0.00 | 0.33 | 0.33 | 78 | 1006.6 |
| 20260509231028 | 58 | 182 | 7.0 | 17.0 | 0.00 | 0.33 | 0.33 | 78 | 1006.7 |
| 20260509230528 | 58 | 169 | 9.0 | 15.0 | 0.00 | 0.33 | 0.33 | 79 | 1006.5 |
| 20260509230027 | 58 | 186 | 6.0 | 13.0 | 0.00 | 0.33 | 0.33 | 79 | 1006.5 |
| 20260509225527 | 58 | 207 | 6.0 | 12.0 | 0.00 | 0.33 | 0.33 | 80 | 1006.2 |
| 20260509225027 | 57 | 162 | 8.0 | 15.0 | 0.00 | 0.33 | 0.33 | 79 | 1006.1 |
| 20260509224803 | 57 | 179 | 9.0 | 15.0 | 0.00 | 0.33 | 0.33 | 78 | 1006.1 |
| 20260509224026 | 58 | 173 | 10.0 | 15.0 | 0.00 | 0.33 | 0.33 | 79 | 1006.2 |
| 20260509223805 | 58 | 197 | 6.0 | 12.0 | 0.00 | 0.33 | 0.33 | 78 | 1006.1 |
| 20260509223027 | 57 | 219 | 6.0 | 12.0 | 0.00 | 0.33 | 0.33 | 79 | 1006.2 |
| 20260509222527 | 57 | 209 | 5.0 | 15.0 | 0.00 | 0.33 | 0.33 | 79 | 1006.0 |